Weather History for VTUD - December, 2013

Change the Weather History Date:

Thursday, December 12, 2013

  Actual Average (VLVT) Record (VLVT)
Temperature  
Mean Temperature 74 °F -  
Max Temperature 86 °F 84 °F 86 °F (2000)
Min Temperature 62 °F 61 °F 57 °F (2011)
Cooling Degree Days 9    
Growing Degree Days 24 (Base 50)    
Moisture  
Dew Point 61 °F    
Average Humidity 62    
Maximum Humidity 94    
Minimum Humidity 37    
Precipitation  
Precipitation 0.00 in 0.01 in - ()
Sea Level Pressure  
Sea Level Pressure 29.87 in    
Wind  
Wind Speed 2 mph ()    
Max Wind Speed 6 mph    
Max Gust Speed -    
Visibility 1.9 miles    
Events Fog    
Averages and records for this station are not official NWS values.
T = Trace of Precipitation, MM = Missing Value Source: Averaged Metar Reports

Daily Weather History Graph

Daily Weather History Graph

Search for Another Location

Airport or City:

Trip Planner

Search our weather history database for the weather conditions in past years. The results will help you decide how hot, cold, wet, or windy it might be!

Date:

Astronomy

Dec. 12, 2013 Rise Set
Actual Time 6:29 AM ICT 5:35 PM ICT
Civil Twilight 6:05 AM ICT 5:59 PM ICT
Nautical Twilight 5:38 AM ICT 6:26 PM ICT
Astronomical Twilight 5:11 AM ICT 6:53 PM ICT
Moon 1:54 PM ICT (12/12) 1:53 AM ICT (12/12)
Length of Visible Light 11h 53m
Length of Day
11h 06m
Waxing Gibbous, 76% of the Moon is Illuminated
Dec 12
Waxing Gibbous
Dec 17
Full
Dec 25
Last Quarter
Jan 1
New
Jan 8
First Quarter

Hourly Weather History & Observations

Time (ICT) Temp. Heat Index Dew Point Humidity Pressure Visibility Wind Dir Wind Speed Gust Speed Precip Events Conditions
1:00 AM 68 °F - 62 °F 74% 29.91 in 2 mi ESE 3.5 mph - -   Mist
4:00 AM 65 °F - 61 °F 83% 29.87 in 1 mi Calm Calm - -   Mist
6:00 AM 62.6 °F - 60.8 °F 94% 29.89 in 0.9 mi Calm Calm - N/A   Mist
7:00 AM 64 °F - 61 °F 87% 29.92 in 0 mi Calm Calm - - Fog Partial Fog
7:00 AM 62.6 °F - 60.8 °F 94% 29.92 in - Calm Calm - N/A Fog Fog
8:00 AM 68.0 °F - 62.6 °F 83% 29.95 in 1.1 mi Calm Calm - N/A   Mist
9:00 AM 71.6 °F - 60.8 °F 69% 29.95 in 1.6 mi Variable 1.2 mph - N/A   Mist
10:00 AM 75.2 °F - 59.0 °F 57% 29.95 in 2.2 mi NE 4.6 mph - N/A   Haze
11:00 AM 78.8 °F - 59.0 °F 51% 29.92 in 2.2 mi ENE 5.8 mph - N/A   Haze
12:00 PM 82.4 °F 82.5 °F 59.0 °F 45% 29.89 in 2.5 mi NE 4.6 mph - N/A   Haze
1:00 PM 83 °F - 62 °F 39% 29.82 in 2 mi ENE 4.6 mph - -   Haze
1:00 PM 84.2 °F 83.8 °F 59.0 °F 42% 29.83 in 2.5 mi NE 5.8 mph - N/A   Haze
3:00 PM 84.2 °F 83.8 °F 59.0 °F 42% 29.80 in 2.5 mi NE 5.8 mph - N/A   Haze
4:00 PM 86 °F - 63 °F 37% 29.78 in 2 mi Calm Calm - -   Haze
4:00 PM 84.2 °F 83.8 °F 59.0 °F 42% 29.80 in 2.5 mi Variable 3.5 mph - N/A   Haze
5:00 PM 82.4 °F 82.0 °F 57.2 °F 42% 29.80 in 2.5 mi NE 4.6 mph - N/A   Haze
6:00 PM 78.8 °F - 60.8 °F 54% 29.83 in 2.5 mi Variable 2.3 mph - N/A   Haze
7:00 PM 75.2 °F - 60.8 °F 61% 29.86 in 2.5 mi Calm Calm - N/A   Haze
8:00 PM 73.4 °F - 60.8 °F 65% 29.89 in 2.2 mi Calm Calm - N/A   Haze
10:00 PM 72 °F - 65 °F 74% 29.89 in 2 mi Calm Calm - -   Mist